$DATE,$TIME,DM0600B,DM0602B,DM0604B,DM0614B,DM0616B,DM0618B,DM0624B,DM0628B,DM0630B,DM0634B,DM0606B,DM0608B,DM0610B
12/07/94,00:00:00,53,41,33,30,0,60,58,85,54,0,8,7,8
12/07/94,00:05:00,46,41,38,32,0,59,56,85,54,0,8,6,8
12/07/94,00:10:00,40,24,37,38,0,59,57,85,52,0,8,6,7
12/07/94,00:15:00,55,40,35,34,0,65,63,85,52,0,8,6,7
12/07/94,00:20:00,44,43,35,39,0,71,68,85,52,0,8,6,7
12/07/94,00:25:00,43,32,29,31,0,68,65,85,52,0,8,6,7
12/07/94,00:30:00,39,43,27,26,0,68,65,85,48,0,8,6,7
12/07/94,00:35:00,41,37,32,31,0,65,62,85,50,0,8,6,7
12/07/94,00:40:00,38,34,39,34,0,65,62,84,50,0,8,6,7
12/07/94,00:45:00,47,28,28,36,0,70,67,84,50,0,8,6,7
12/07/94,00:50:00,33,41,27,29,0,66,63,84,48,0,9,6,7
12/07/94,00:55:00,28,35,29,35,0,68,64,83,48,0,8,6,7
12/07/94,01:00:00,33,31,30,25,0,69,66,83,55,0,8,6,7
12/07/94,01:05:00,35,38,32,30,0,67,64,83,48,0,8,6,8
12/07/94,01:10:00,35,30,37,25,0,69,66,86,48,0,8,6,7
12/07/94,01:15:00,37,38,34,33,0,68,65,84,50,0,8,6,7
12/07/94,01:20:00,37,42,35,31,0,66,63,83,50,0,8,6,7
12/07/94,01:25:00,38,48,35,31,0,60,58,83,50,0,7,5,6
12/07/94,01:30:00,25,34,38,34,0,56,53,84,48,0,7,6,6
12/07/94,01:35:00,43,50,29,30,0,55,53,84,48,0,8,6,6
12/07/94,01:40:00,51,55,33,33,0,59,56,84,57,0,7,6,6
12/07/94,01:45:00,42,30,40,31,0,63,60,84,66,0,7,6,6
12/07/94,01:50:00,48,35,40,34,0,59,56,84,59,0,8,6,6
12/07/94,01:55:00,48,38,46,39,0,60,58,84,59,0,8,6,6
12/07/94,02:00:00,41,45,34,40,0,61,59,84,59,0,7,6,6
12/07/94,02:05:00,36,39,35,40,0,56,53,85,59,0,7,6,6
12/07/94,02:10:00,41,36,37,37,0,56,54,84,57,0,7,6,8
12/07/94,02:15:00,42,36,30,35,0,55,53,84,57,0,7,6,7
12/07/94,02:20:00,35,36,33,31,0,56,53,84,57,0,7,6,7
12/07/94,02:25:00,44,36,37,36,0,57,54,84,57,0,7,6,7
12/07/94,02:30:00,41,42,38,36,0,63,60,84,89,0,7,6,7
12/07/94,02:35:00,46,31,32,33,0,68,65,84,59,0,7,7,6
12/07/94,02:40:00,45,33,31,33,0,70,67,84,59,0,7,6,6
12/07/94,02:45:00,46,43,37,35,0,58,55,84,57,0,7,6,7
12/07/94,02:50:00,53,36,48,34,0,53,51,84,57,0,7,6,7
12/07/94,02:55:00,41,34,34,35,0,54,52,85,57,0,8,6,7
12/07/94,03:00:00,48,37,34,36,0,52,50,84,57,0,8,6,6
12/07/94,03:05:00,53,36,41,35,0,53,51,84,57,0,8,6,7
12/07/94,03:10:00,58,33,39,35,0,54,52,84,59,0,7,6,7
12/07/94,03:15:00,55,36,36,32,0,52,50,84,90,0,7,6,8
12/07/94,03:20:00,55,34,40,36,0,55,53,84,59,0,7,6,8
12/07/94,03:25:00,57,34,39,35,0,54,52,84,57,0,7,6,7
12/07/94,03:30:00,44,33,31,34,0,59,56,84,57,0,7,7,7
12/07/94,03:35:00,42,34,40,33,0,63,61,84,57,0,7,7,7
12/07/94,03:40:00,42,35,34,34,0,63,61,84,57,0,7,7,7
12/07/94,03:45:00,52,34,37,34,0,60,58,84,57,0,7,6,7
12/07/94,03:50:00,52,36,42,36,0,60,57,84,59,0,7,6,7
12/07/94,03:55:00,50,34,37,35,0,62,59,84,59,0,8,6,7
12/07/94,04:00:00,53,44,41,34,0,63,60,84,62,0,8,6,7
12/07/94,04:05:00,49,38,33,30,0,61,58,84,57,0,8,6,7
12/07/94,04:10:00,49,42,43,33,0,61,58,84,61,0,8,6,6
12/07/94,04:15:00,52,40,37,34,0,60,57,84,61,0,8,6,7
12/07/94,04:20:00,48,34,37,33,0,58,55,84,61,0,8,6,8
12/07/94,04:25:00,36,33,33,33,0,57,55,85,63,0,8,7,7
12/07/94,04:30:00,52,45,38,28,0,57,55,84,56,0,8,6,7
12/07/94,04:35:00,54,47,37,34,0,59,56,84,56,0,7,6,7
12/07/94,04:40:00,52,41,32,31,0,58,56,82,54,0,7,6,7
12/07/94,04:45:00,46,42,44,38,0,53,51,83,64,0,8,6,7
12/07/94,04:50:00,46,33,35,37,0,54,52,83,63,0,8,6,7
12/07/94,04:55:00,51,34,40,38,0,53,50,83,63,0,8,6,6
12/07/94,05:00:00,54,29,31,31,0,49,47,83,63,0,8,6,6
12/07/94,05:05:00,41,37,35,33,0,47,45,83,65,0,9,6,7
12/07/94,05:10:00,59,36,34,35,0,43,42,83,65,0,9,6,6
12/07/94,05:15:00,58,28,40,35,0,48,46,83,61,0,9,6,7
12/07/94,05:20:00,48,37,35,34,0,48,46,82,59,0,8,7,7
12/07/94,05:25:00,42,42,35,32,0,46,44,83,59,0,8,7,8
12/07/94,05:30:00,54,36,43,33,0,45,43,82,60,0,8,6,8
12/07/94,05:35:00,49,36,37,33,0,46,44,87,59,0,8,6,7
12/07/94,05:40:00,55,38,41,34,0,47,45,82,63,0,8,6,7
12/07/94,05:45:00,56,40,36,31,0,47,45,82,65,0,8,6,7
12/07/94,05:50:00,60,33,41,33,0,47,45,83,65,0,8,6,7
12/07/94,05:55:00,56,41,36,38,0,46,44,83,74,0,8,6,7
12/07/94,06:00:00,46,36,43,37,0,45,43,83,59,0,8,6,7
12/07/94,06:05:00,55,39,46,32,0,44,42,87,59,0,9,6,7
12/07/94,06:10:00,54,35,44,35,0,43,41,84,59,0,9,6,7
12/07/94,06:15:00,56,35,48,38,0,44,42,85,74,0,9,7,7
12/07/94,06:20:00,51,35,43,36,0,43,41,84,59,0,9,7,7
12/07/94,06:25:00,55,37,40,35,0,43,41,85,61,0,9,7,7
12/07/94,06:30:00,55,37,42,36,0,44,42,85,63,0,9,6,8
12/07/94,06:35:00,55,35,44,38,0,44,42,85,63,0,9,6,8
12/07/94,06:40:00,57,34,41,36,0,44,42,85,61,0,9,6,7
12/07/94,06:45:00,55,36,40,31,0,44,43,85,61,0,9,6,7
12/07/94,06:50:00,49,33,46,38,0,45,43,85,57,0,9,6,7
12/07/94,06:55:00,53,37,43,37,0,45,43,85,57,0,9,6,7
12/07/94,07:00:00,55,41,43,36,0,45,43,85,57,0,9,6,7
12/07/94,07:05:00,56,35,43,34,0,43,41,85,59,0,9,6,7
12/07/94,07:10:00,54,35,44,33,0,42,40,85,58,0,10,7,7
12/07/94,07:15:00,55,40,44,35,0,40,38,85,58,0,9,7,7
12/07/94,07:20:00,52,34,45,33,0,41,39,85,56,0,9,7,7
12/07/94,07:25:00,55,33,44,34,0,42,40,85,56,0,9,6,7
12/07/94,07:30:00,53,36,43,37,0,38,36,85,56,0,9,6,7
12/07/94,07:35:00,55,36,45,36,0,40,39,85,56,0,9,6,8
12/07/94,07:40:00,56,30,44,36,0,40,38,85,56,0,8,6,8
12/07/94,07:45:00,57,34,43,35,0,39,37,85,56,0,9,6,7
12/07/94,07:50:00,53,38,46,35,0,36,35,85,57,0,8,6,7
12/07/94,07:55:00,57,32,47,34,0,36,35,85,68,0,9,6,7
12/07/94,08:00:00,49,35,45,29,0,34,32,85,56,0,9,6,7
12/07/94,08:05:00,57,34,45,37,0,33,32,85,55,0,9,7,7
12/07/94,08:10:00,59,30,49,36,0,32,31,85,56,0,9,7,7
12/07/94,08:15:00,55,33,44,35,0,32,31,85,56,0,9,6,7
12/07/94,08:20:00,57,33,48,37,0,31,30,85,56,0,9,6,7
12/07/94,08:25:00,53,34,49,37,0,30,29,85,56,0,9,6,7
12/07/94,08:30:00,52,35,44,36,0,30,29,85,76,0,9,6,7
12/07/94,08:35:00,55,30,45,33,0,31,29,85,58,0,9,6,7
12/07/94,08:40:00,56,33,45,33,0,29,28,85,58,0,9,6,8
12/07/94,08:45:00,55,32,46,39,0,27,26,85,56,0,9,6,8
12/07/94,08:50:00,46,35,49,33,0,27,25,86,47,0,9,6,7
12/07/94,08:55:00,55,33,45,36,0,28,27,85,40,0,9,6,7
12/07/94,09:00:00,56,38,48,38,0,26,25,86,40,0,9,7,7
12/07/94,09:05:00,43,37,47,24,0,27,26,86,40,0,9,7,7
12/07/94,09:10:00,52,33,41,32,0,28,27,86,40,0,9,6,7
12/07/94,09:15:00,57,38,47,35,0,29,28,85,42,0,10,6,7
12/07/94,09:20:00,55,34,45,38,0,29,28,85,41,0,10,6,7
12/07/94,09:25:00,55,32,41,35,0,31,29,85,39,0,9,6,7
12/07/94,09:30:00,52,36,44,33,0,30,29,85,39,0,9,6,7
12/07/94,09:35:00,52,35,41,29,0,30,29,85,39,0,9,6,7
12/07/94,09:40:00,53,34,45,36,0,30,29,84,39,0,9,6,7
12/07/94,09:45:00,53,32,43,33,0,28,27,85,39,0,9,6,8
12/07/94,09:50:00,49,33,47,34,0,27,26,85,39,0,9,6,8
12/07/94,09:55:00,55,38,46,35,0,27,25,85,41,0,9,7,7
12/07/94,10:00:00,55,35,45,38,0,26,24,85,49,0,9,6,7
12/07/94,10:05:00,55,31,41,35,0,24,23,85,41,0,9,7,7
12/07/94,10:10:00,58,42,35,38,0,19,19,85,39,0,9,7,6
12/07/94,10:15:00,54,37,49,36,0,17,17,85,39,0,9,6,7
12/07/94,10:20:00,53,33,43,37,0,19,18,85,40,0,9,7,6
12/07/94,10:25:00,52,36,47,32,0,17,17,85,39,0,9,6,7
12/07/94,10:30:00,55,38,44,37,0,16,16,85,39,0,9,6,7
12/07/94,10:35:00,56,37,43,37,0,14,14,85,39,0,9,6,6
12/07/94,10:40:00,57,37,45,39,0,13,12,85,42,0,9,7,6
12/07/94,10:45:00,53,38,48,40,0,13,12,85,41,0,9,6,6
12/07/94,10:50:00,57,33,47,40,0,11,10,85,40,0,9,7,7
12/07/94,10:55:00,56,37,49,38,0,11,10,85,40,0,8,7,8
12/07/94,11:00:00,55,38,45,38,0,10,9,85,39,0,8,7,7
12/07/94,11:05:00,57,31,48,39,0,9,9,85,40,0,8,7,7
12/07/94,11:10:00,58,35,45,39,0,8,7,85,40,0,8,7,7
12/07/94,11:15:00,58,38,47,35,0,8,8,85,39,0,8,7,7
12/07/94,11:20:00,57,31,49,38,0,8,7,85,43,0,9,6,7
12/07/94,11:25:00,59,39,49,40,0,7,7,85,42,0,9,7,7
12/07/94,11:30:00,57,38,48,41,0,8,8,85,41,0,9,6,7
12/07/94,11:35:00,53,46,47,41,0,8,8,85,40,0,9,6,7
12/07/94,11:40:00,53,36,43,40,0,12,11,85,40,0,9,7,7
12/07/94,11:45:00,51,39,43,39,0,15,14,85,40,0,8,7,7
12/07/94,11:50:00,56,40,41,36,0,16,15,85,40,0,9,7,7
12/07/94,11:55:00,57,36,37,41,0,15,14,85,40,0,8,7,8
12/07/94,12:00:00,59,40,42,37,0,14,13,85,40,0,8,7,8
12/07/94,12:05:00,58,40,43,42,0,16,15,85,42,0,8,6,8
12/07/94,12:10:00,50,35,47,32,0,16,15,85,42,0,8,6,7
12/07/94,12:15:00,53,35,43,32,0,14,14,85,76,0,8,6,7
12/07/94,12:20:00,57,35,43,35,0,15,15,85,40,0,8,6,7
12/07/94,12:25:00,48,39,43,39,0,15,14,85,39,0,9,6,7
12/07/94,12:30:00,55,39,44,35,0,17,16,85,39,0,9,6,7
12/07/94,12:35:00,54,46,36,38,0,17,17,85,40,0,8,6,7
12/07/94,12:40:00,57,43,35,38,0,17,17,85,39,0,8,7,7
12/07/94,12:45:00,48,40,46,41,0,13,13,85,40,0,8,7,7
12/07/94,12:50:00,52,39,44,39,0,15,15,85,42,0,8,7,7
12/07/94,12:55:00,40,38,42,39,0,16,15,85,42,0,7,6,7
12/07/94,13:00:00,52,42,45,39,0,15,15,85,62,0,7,6,8
12/07/94,13:05:00,58,41,43,40,0,15,15,85,40,0,7,6,8
12/07/94,13:10:00,59,43,39,39,0,15,14,85,40,0,7,6,7
12/07/94,13:15:00,48,36,36,38,0,15,15,85,40,0,7,6,7
12/07/94,13:20:00,54,41,37,38,0,15,15,85,40,0,7,6,7
12/07/94,13:25:00,45,52,42,36,0,16,15,85,40,0,7,6,7
12/07/94,13:30:00,50,34,36,38,0,16,15,85,40,0,8,6,7
12/07/94,13:35:00,45,36,31,37,0,16,16,85,42,0,8,6,6
12/07/94,13:40:00,57,49,35,35,0,17,16,85,42,0,7,7,7
12/07/94,13:45:00,57,46,26,36,0,18,17,85,59,0,7,6,6
12/07/94,13:50:00,48,35,38,37,0,18,17,85,40,0,7,6,6
12/07/94,13:55:00,57,42,44,39,0,18,17,85,40,0,7,6,6
12/07/94,14:00:00,41,45,38,37,0,19,18,85,40,0,7,6,6
12/07/94,14:05:00,50,47,37,44,0,20,19,85,40,0,7,6,7
12/07/94,14:10:00,40,52,32,39,0,20,20,85,40,0,7,6,7
12/07/94,14:15:00,45,37,38,40,0,21,20,85,40,0,7,6,7
12/07/94,14:20:00,50,50,39,45,0,20,19,85,42,0,7,6,7
12/07/94,14:25:00,48,48,34,41,0,18,18,85,42,0,7,6,7
12/07/94,14:30:00,49,42,40,37,0,18,18,85,40,0,7,6,7
12/07/94,14:35:00,42,42,42,39,0,18,17,85,40,0,7,6,7
12/07/94,14:40:00,37,45,28,35,0,19,18,85,39,0,7,6,7
12/07/94,14:45:00,44,39,41,37,0,19,18,85,39,0,7,6,6
12/07/94,14:50:00,49,43,39,38,0,19,18,85,39,0,7,6,7
12/07/94,14:55:00,48,58,38,36,0,19,18,85,39,0,7,6,6
12/07/94,15:00:00,32,35,38,42,0,19,18,85,40,0,7,5,7
12/07/94,15:05:00,49,40,30,38,0,19,18,85,42,0,7,5,7
12/07/94,15:10:00,52,54,46,35,0,19,18,85,41,0,7,5,8
12/07/94,15:15:00,48,38,33,38,0,19,18,85,40,0,7,5,7
12/07/94,15:20:00,49,36,38,41,0,20,19,85,40,0,7,5,7
12/07/94,15:25:00,50,48,29,32,0,20,20,85,40,0,7,6,7
12/07/94,15:30:00,44,49,36,37,0,21,20,85,39,0,7,6,7
12/07/94,15:35:00,46,40,40,33,0,21,20,85,40,0,7,6,7
12/07/94,15:40:00,44,47,38,33,0,22,21,85,40,0,8,6,7
12/07/94,15:45:00,48,38,35,33,0,22,22,85,39,0,8,6,7
12/07/94,15:50:00,42,50,38,36,0,23,22,85,41,0,7,6,6
12/07/94,15:55:00,60,49,37,38,0,23,22,85,41,0,7,6,7
12/07/94,16:00:00,43,29,40,36,0,24,23,85,42,0,7,6,7
12/07/94,16:05:00,42,30,35,36,0,23,22,85,40,0,8,6,6
12/07/94,16:10:00,42,29,33,39,0,19,18,85,40,0,7,6,7
12/07/94,16:15:00,34,44,36,30,0,21,21,85,40,0,7,6,7
12/07/94,16:20:00,47,50,34,36,0,20,19,85,40,0,7,6,7
12/07/94,16:25:00,52,41,38,39,0,16,15,85,40,0,7,7,7
12/07/94,16:30:00,49,47,34,40,0,15,15,85,40,0,7,6,7
12/07/94,16:35:00,39,27,39,38,0,17,16,85,42,0,7,6,7
12/07/94,16:40:00,55,42,40,35,0,19,19,85,42,0,8,6,7
12/07/94,16:45:00,54,49,48,36,0,22,21,85,40,0,8,6,7
12/07/94,16:50:00,40,44,35,32,0,21,20,85,40,0,7,6,7
12/07/94,16:55:00,42,43,37,35,0,24,23,85,40,0,7,6,6
12/07/94,17:00:00,35,43,36,37,0,23,22,85,44,0,7,6,6
12/07/94,17:05:00,51,45,32,38,0,28,27,85,44,0,7,6,7
12/07/94,17:10:00,47,58,37,37,0,26,25,85,44,0,7,6,6
12/07/94,17:15:00,57,40,41,37,0,28,26,85,44,0,7,6,7
12/07/94,17:20:00,47,40,40,33,0,30,28,85,49,0,7,7,8
12/07/94,17:25:00,50,48,39,38,0,25,24,85,49,0,7,6,7
12/07/94,17:30:00,34,37,40,40,0,33,32,86,50,0,7,6,7
12/07/94,17:35:00,45,34,35,37,0,36,34,85,47,0,7,6,7
12/07/94,17:40:00,35,45,35,38,0,36,35,85,47,0,8,6,7
12/07/94,17:45:00,48,39,39,41,0,37,35,85,47,0,8,6,7
12/07/94,17:50:00,48,44,34,29,0,35,34,85,47,0,8,6,7
12/07/94,17:55:00,52,43,45,35,0,31,30,85,47,0,7,6,6
12/07/94,18:00:00,46,51,42,40,0,27,26,85,47,0,7,5,6
12/07/94,18:05:00,37,40,32,36,0,29,28,85,49,0,7,5,6
12/07/94,18:10:00,59,45,38,35,0,32,31,85,49,0,7,6,7
12/07/94,18:15:00,56,48,42,35,0,34,32,85,56,0,7,6,6
12/07/94,18:20:00,47,45,34,39,0,34,33,85,47,0,7,6,7
12/07/94,18:25:00,51,48,35,32,0,34,32,85,47,0,7,6,7
12/07/94,18:30:00,57,46,44,30,0,29,28,85,47,0,7,6,7
12/07/94,18:35:00,56,44,38,33,0,39,37,85,47,0,7,6,7
12/07/94,18:40:00,55,38,26,31,0,36,35,85,47,0,7,6,7
12/07/94,18:45:00,45,50,39,30,0,35,33,85,47,0,8,6,7
12/07/94,18:50:00,51,40,41,36,0,34,32,85,47,0,8,6,7
12/07/94,18:55:00,50,48,39,35,0,35,34,85,49,0,7,6,6
12/07/94,19:00:00,51,49,33,35,0,41,40,85,54,0,7,6,7
12/07/94,19:05:00,53,42,42,29,0,31,31,88,62,0,7,6,6
12/07/94,19:10:00,54,48,41,35,0,45,43,85,65,0,8,6,7
12/07/94,19:15:00,26,25,22,17,0,0,0,86,66,0,8,6,6
12/07/94,19:20:00,39,19,30,25,0,0,0,87,67,0,8,7,7
12/07/94,19:25:00,75,5,26,58,0,54,52,86,67,0,17,18,7
12/07/94,19:30:00,68,5,59,50,0,42,39,86,67,0,14,18,7
12/07/94,19:35:00,63,26,55,40,0,33,32,86,67,0,11,13,8
12/07/94,19:40:00,59,43,47,38,0,45,43,85,69,0,10,11,8
12/07/94,19:45:00,57,39,44,37,0,35,34,85,83,0,9,9,7
12/07/94,19:50:00,51,37,45,35,0,39,37,85,66,0,9,8,7
12/07/94,19:55:00,55,33,44,32,0,38,37,85,65,0,9,7,7
12/07/94,20:00:00,55,38,33,37,0,45,44,85,65,0,8,7,7
12/07/94,20:05:00,55,48,40,33,0,46,44,85,65,0,8,7,7
12/07/94,20:10:00,56,37,42,30,0,47,45,85,65,0,8,7,7
12/07/94,20:15:00,52,37,38,32,0,53,51,85,65,0,8,6,7
12/07/94,20:20:00,54,38,43,35,0,56,54,85,65,0,8,6,7
12/07/94,20:25:00,52,37,43,31,0,58,55,85,67,0,8,7,7
12/07/94,20:30:00,52,33,43,31,0,57,54,85,67,0,9,7,7
12/07/94,20:35:00,57,35,44,33,0,54,51,85,66,0,9,6,8
12/07/94,20:40:00,53,39,34,33,0,53,51,85,65,0,9,6,8
12/07/94,20:45:00,55,35,44,31,0,53,52,85,65,0,9,6,7
12/07/94,20:50:00,55,37,40,32,0,62,59,85,64,0,8,6,7
12/07/94,20:55:00,51,40,43,28,0,62,60,85,79,0,8,6,7
12/07/94,21:00:00,53,32,42,32,0,66,63,85,65,0,8,6,7
12/07/94,21:05:00,51,40,38,30,0,65,62,85,64,0,9,6,7
12/07/94,21:10:00,49,38,30,35,0,57,54,85,64,0,8,6,7
12/07/94,21:15:00,60,32,33,38,0,59,56,85,81,0,8,6,7
12/07/94,21:20:00,52,30,37,34,0,64,62,85,66,0,8,7,7
12/07/94,21:25:00,32,32,36,37,0,62,59,85,64,0,8,7,7
12/07/94,21:30:00,56,38,36,38,0,62,60,85,64,0,8,6,6
12/07/94,21:35:00,46,40,37,33,0,61,58,85,64,0,9,6,6
12/07/94,21:40:00,52,42,35,35,0,57,55,85,64,0,9,6,7
12/07/94,21:45:00,55,37,30,34,0,60,57,84,65,0,9,6,8
12/07/94,21:50:00,51,37,32,35,0,57,55,84,64,0,9,6,7
12/07/94,21:55:00,47,41,32,39,0,57,54,85,64,0,8,6,7
12/07/94,22:00:00,56,43,30,37,0,55,53,85,83,0,8,6,7
12/07/94,22:05:00,47,37,29,40,0,52,50,85,66,0,8,6,7
12/07/94,22:10:00,49,38,36,38,0,57,55,84,66,0,8,6,7
12/07/94,22:15:00,45,34,30,30,0,63,61,85,64,0,8,7,7
12/07/94,22:20:00,39,28,31,35,0,66,64,85,65,0,8,7,6
12/07/94,22:25:00,38,36,32,32,0,68,65,84,56,0,8,6,7
12/07/94,22:30:00,35,33,28,26,0,72,69,84,56,0,8,6,7
12/07/94,22:35:00,31,37,36,33,0,73,70,84,56,0,8,6,7
12/07/94,22:40:00,40,36,25,28,0,72,68,84,56,0,9,6,7
12/07/94,22:45:00,39,43,36,30,0,67,65,85,73,0,9,6,8
12/07/94,22:50:00,41,30,31,39,0,55,53,85,67,0,9,6,8
12/07/94,22:55:00,44,33,40,34,0,54,51,85,66,0,8,6,8
12/07/94,23:00:00,45,44,37,37,0,57,55,85,65,0,8,6,7
12/07/94,23:05:00,38,36,34,37,0,60,57,85,65,0,8,6,7
12/07/94,23:10:00,46,31,33,37,0,60,58,85,65,0,8,6,7
12/07/94,23:15:00,44,27,32,30,0,69,66,85,65,0,8,7,7
12/07/94,23:20:00,44,49,33,32,0,70,67,85,65,0,8,6,7
12/07/94,23:25:00,44,33,42,33,0,69,66,85,64,0,8,6,7
12/07/94,23:30:00,34,41,39,28,0,66,63,85,86,0,9,6,7
12/07/94,23:35:00,36,42,34,37,0,63,61,85,66,0,8,6,7
12/07/94,23:40:00,54,34,29,33,0,61,58,85,66,0,9,6,7
12/07/94,23:45:00,49,42,31,37,0,64,61,85,65,0,9,6,7
12/07/94,23:50:00,29,42,34,35,0,66,63,85,65,0,9,6,8
12/07/94,23:55:00,40,34,34,33,0,65,63,85,65,0,9,6,8
12/08/94,00:00:00,,,,,,,,,,,,,
